Regional Weather Roundup
Issued by NWS Charleston, SC

Current Version | Previous Version | Text Only | Print | Product List | Glossary Off
Versions: 1 2 3 4 5 6 7 8 9 10 11 12 13 14 15 16 17 18 19 20 21 22 23 24 25 26 27 28 29 30 31 32 33 34 35 36 37 38 39 40 41 42 43 44 45 46 47 48 49 50

000
ASUS42 KCHS 262128
RWRCHS

REGIONAL WEATHER ROUNDUP
NATIONAL WEATHER SERVICE CHARLESTON SC
500 PM EDT FRI AUG 26 2016

NOTE: "FAIR" INDICATES FEW OR NO CLOUDS BELOW 12,000 FEET WITH NO
SIGNIFICANT WEATHER AND/OR OBSTRUCTIONS TO VISIBILITY.

NOT ALL STATIONS ARE QUALITY CONTROLLED. USE DATA WITH CAUTION...
ESPECIALLY DEWPOINT OBSERVATIONS.

SCZ027-030-031-034>040-042>050-262200-
...SOUTHEAST SOUTH CAROLINA...

CITY           SKY/WX    TMP DP  RH WIND       PRES   REMARKS
N CHARLESTON   MOSUNNY   90  70  51 E13       30.03F HX  95
WATERFRONT PRK   N/A     88  77  69 E10       30.03F HX 100
MOUNT PLEASANT FAIR      88  73  62 E7        30.04F HX  96
JOHNS ISLAND   FAIR      86  73  66 E10       30.04F HX  93
PINOPOLIS        N/A     90  75  62 CALM      29.96F HX 100
MONCKS CORNER  FAIR      88  72  58 E7        30.03F HX  94
SUMMERVILLE    FAIR      91  72  52 E6        30.03F HX  98
BEAUFORT MCAS  MOSUNNY   88  72  58 E14G20    30.03F HX  94
BEAUFORT ARPT  FAIR      88  70  55 E13G18    30.03F HX  92
HILTON HEAD IS SUNNY     91  73  55 NE7G14    30.05F HX 100
WALTERBORO     MOCLDY    91  70  49 SE3       30.03F HX  97
ALLENDALE      FAIR      93  70  46 VRB6G12   30.01F HX  99

...SOUTHERN MIDLANDS AND PEE DEE...

CITY           SKY/WX    TMP DP  RH WIND       PRES   REMARKS
GEORGETOWN     FAIR      86  72  62 SE8       30.05F HX  92
KINGSTREE      FAIR      91  68  46 NE5       30.02F HX  95
ORANGEBURG     SUNNY     93  69  45 E9        30.03F HX  98
BARNWELL       NOT AVBL
AIKEN          FAIR      93  68  43 SE9       30.05F HX  97
MANNING        MOCLDY    90  72  55 SW8       30.03S HX  96
COLUMBIA       MOSUNNY   96  70  42 SE10G18   30.01F HX 102
SUMTER         SUNNY     95  70  44 VRB3      30.00F HX 100
FLORENCE       MOSUNNY   95  70  44 SE8G17    30.03F HX 101
MYRTLE BEACH   SUNNY     88  68  51 SE12      30.07F HX  91
N MYRTLE BEACH SUNNY     86  72  62 SE8       30.05F HX  92

$$

GAZ063-065-086>088-099>101-113>116-118-119-134>141-150-262200-
...SOUTHEAST GEORGIA...

CITY           SKY/WX    TMP DP  RH WIND       PRES   REMARKS
SAVANNAH ARPT  MOSUNNY   90  68  48 E17       30.03F HX  94
HUNTER AAF     SUNNY     87  75  67 E13       30.02S HX  97
FORT STEWART   MOSUNNY   89  71  53 E9G18     30.00F HX  95
STATESBORO     MOSUNNY   94  71  47 E10       30.01F HX 101
SYLVANIA       NOT AVBL
CLAXTON        FAIR      92  70  47 E9G17     30.01F HX  98

...CSRA...CENTRAL AND FAR SOUTHEAST GEORGIA...

CITY           SKY/WX    TMP DP  RH WIND       PRES   REMARKS
THOMSON        MOSUNNY   96  72  44 MISG      30.06F HX 105
AUGUSTA-BUSH   MOSUNNY   95  68  41 S8        30.00F HX  99
AUGUSTA-DANIEL SUNNY     95  69  42 S10       30.02F HX 100
SWAINSBORO     FAIR      95  63  34 SE14G21   30.02F HX  96
VIDALIA        MOSUNNY   95  72  46 SE8       30.01F HX 103
EASTMAN        FAIR      96  44  16 SE6       30.02F HX  92
HAZLEHURST     FAIR      95  66  38 E8        30.00F HX  97
ALMA           SUNNY     91  66  43 E9G18     30.01S HX  93
WAYCROSS         N/A     93  71  49 E14       30.01F HX  99
JESUP          FAIR      90  73  58 E16       30.02F HX  98
BAXLEY         FAIR      91  73  55 E9G17     30.01S HX 100
BRUNSWICK      PTSUNNY   88  73  62 NE13      30.03F HX  96
SAINT SIMONS   MOSUNNY   87  69  54 E12       30.03F HX  91

$$

SCZ027-028-034-036>038-045-046-048>050-GAZ119-141-262200-
...LAKE AND SUPPLEMENTAL COASTAL OBSERVATIONS...

STATION/POSITION TIME  TEMP    WIND        PRES    WAVE   SWELL
                       AIR SEA DIR/SP/G            HT/PER HT/PER/DIR
                 (UTC) (F)     (DEG/KT/KT) (MB)    (FT/S) (FT/S/D)
WINYAH BAY       2045   83     110/  7     1017.0F
LAKE MURRAY      2000   94     190/  5/  7 1015.9F
ACE BASIN NERRS  2000   90     110/  4     1017.0F
FORT PULASKI     2100   84 86   70/ 11/ 13 1017.8F
SAPELO ISLAND    2100   85      60/ 11     1017.0S

$$

ANZ835-935-AMZ111-154-330-350-352-354-370-450-454-472-262200-
...C-MAN AND BUOY OBSERVATIONS...

STATION/POSITION TIME  TEMP    WIND        PRES    WAVE   SWELL
                       AIR SEA DIR/SP/G            HT/PER HT/PER/DIR
                 (UTC) (F)     (DEG/KT/KT) (MB)    (FT/S) (FT/S/D)
BUOY 41004       2050   83 83   60/ 14/ 17 1016.6F   3/ 8   2/130/ 8
BUOY 41008       2050   83 85   80/ 14/ 17 1016.6F   4/ 8   2/100/ 8
FOLLY BEACH CMAN 2100   83      80/  9/ 11 1018.0F
CAPERS NEARSHORE 2108   83 85   90/ 10/ 14 1017.0F
FRIPP NEARSHORE  2108   83 86   90/ 12/ 16 1016.6F


STATION/POSITION TIME  TEMP    WIND        PRES    WAVE   SWELL
                       AIR SEA DIR/SP/G            HT/PER HT/PER/DIR
                 (UTC) (F)     (DEG/KT/KT) (MB)    (FT/S) (FT/S/D)
5E ST. MARYS GA  2101      85                N/A     4/ 8
FRYING PAN BUOY  2100   83 85   70/ 10/ 12 1017.0F
BUOY 41025       2050   83 87   CALM  /  2 1018.1F   2/ 8   2/ 80/ 8
CAPE LOOKOUT NC  2100   83     140/  3/  4 1017.6F
BUOY 41002       2050   83 84   60/ 17/ 21 1016.0F   7/ 6   3/120/11
BUOY 41010       NOT AVBL
ST AUGUSTINE FL  2100   82 85   60/ 14/ 15 1016.8F


$$




USA.gov is the U.S. government's official web portal to all federal, state and local government web resources and services.